Tracking 30261 objects as of 18-Feb-2025
HD Live streaming from Space Station
objects crossing your sky now

STARLINK-5177

Track STARLINK-5177 now!
10-day predictions
STARLINK-5177 is classified as:


NORAD ID: 54090
Int'l Code: 2022-136AR
Perigee: 545.9 km
Apogee: 547.9 km
Inclination: 53.2 °
Period: 95.4 minutes
Semi major axis: 6917 km
RCS: Unknown
Launch date: October 20, 2022
Source: United States (US)
Launch site: AIR FORCE EASTERN TEST RANGE (AFETR)
Your satellite tracking list
Your tracking list is empty




NASA's NSSDC Master Catalog

Two Line Element Set (TLE):
1 54090U 22136AR  25048.82351929  .00000435  00000-0  45447-4 0  9990
2 54090  53.2167 261.7602 0001479  91.2674 268.8487 15.08841341129356
Source of the keplerian elements: AFSPC